• In Czech Republic
  • List of Countries
  • For 7 days
  • Water Temperature
  • Satellite Maps
  • Weather Map
  • Weather Widgets
  • user-avatar
    Login

    Hourly Weather Bihać

    Today, 20 October, Saturday

    Time Temperature Precipitation Wind Pressure Humidity
    00:00 +10°C° 0 mm 3 mps 713 mmHg 83%
    01:00 +9°C° 0 mm 3 mps 713 mmHg 84%
    02:00 +9°C° 0 mm 3 mps 713 mmHg 84%
    03:00 +9°C° 0 mm 3 mps 713 mmHg 85%
    04:00 +8°C° 0 mm 3 mps 713 mmHg 86%
    05:00 +8°C° 0 mm 3 mps 714 mmHg 86%
    06:00 +8°C° 0 mm 3 mps 714 mmHg 86%
    07:00 +8°C° 0 mm 3 mps 714 mmHg 87%
    08:00 +10°C° 0 mm 3 mps 714 mmHg 79%
    09:00 +12°C° 0 mm 3 mps 715 mmHg 71%
    10:00 +14°C° 0 mm 3 mps 715 mmHg 63%
    11:00 +16°C° 0 mm 3 mps 715 mmHg 59%
    12:00 +17°C° 0 mm 3 mps 715 mmHg 56%
    13:00 +18°C° 0 mm 2 mps 715 mmHg 52%
    14:00 +18°C° 0 mm 2 mps 715 mmHg 55%
    15:00 +17°C° 0 mm 2 mps 715 mmHg 59%
    16:00 +16°C° 0 mm 2 mps 714 mmHg 62%
    17:00 +15°C° 0 mm 2 mps 714 mmHg 69%
    18:00 +12°C° 0 mm 3 mps 714 mmHg 75%
    19:00 +10°C° 0 mm 3 mps 714 mmHg 82%
    20:00 +10°C° 0 mm 3 mps 714 mmHg 83%
    21:00 +9°C° 0 mm 3 mps 714 mmHg 84%
    22:00 +9°C° 0 mm 3 mps 715 mmHg 85%
    23:00 +9°C° 0 mm 3 mps 714 mmHg 85%

    Tomorrow, 21 October, Sunday

    Time Temperature Precipitation Wind Pressure Humidity
    00:00 +9°C° 0 mm 3 mps 714 mmHg 86%
    01:00 +8°C° 0 mm 3 mps 714 mmHg 87%
    02:00 +8°C° 0 mm 3 mps 714 mmHg 87%
    03:00 +8°C° 0 mm 3 mps 713 mmHg 87%
    04:00 +8°C° 0 mm 3 mps 713 mmHg 88%
    05:00 +8°C° 0 mm 3 mps 713 mmHg 87%
    06:00 +8°C° 0 mm 3 mps 713 mmHg 86%
    07:00 +8°C° 0 mm 3 mps 713 mmHg 85%
    08:00 +9°C° 0.1 mm 3 mps 713 mmHg 83%
    09:00 +8°C° 0.1 mm 4 mps 713 mmHg 81%
    10:00 +10°C° 0.1 mm 4 mps 714 mmHg 79%
    11:00 +8°C° 0.3 mm 4 mps 713 mmHg 78%
    12:00 +7°C° 0.3 mm 5 mps 713 mmHg 76%
    13:00 +7°C° 0.3 mm 6 mps 713 mmHg 74%
    14:00 +7°C° 0 mm 5 mps 713 mmHg 71%
    15:00 +7°C° 0 mm 5 mps 713 mmHg 68%
    16:00 +7°C° 0 mm 5 mps 713 mmHg 64%
    17:00 +6°C° 0 mm 5 mps 713 mmHg 69%
    18:00 +5°C° 0 mm 5 mps 713 mmHg 73%
    19:00 +3°C° 0 mm 5 mps 713 mmHg 78%
    20:00 +3°C° 0 mm 5 mps 713 mmHg 79%
    21:00 +3°C° 0 mm 5 mps 713 mmHg 81%
    22:00 +3°C° 0 mm 5 mps 713 mmHg 83%
    23:00 +3°C° 0 mm 5 mps 712 mmHg 83%

    Day after tomorrow, 22 October, Monday

    Time Temperature Precipitation Wind Pressure Humidity
    00:00 +3°C° 0 mm 5 mps 712 mmHg 83%
    01:00 +3°C° 0 mm 5 mps 712 mmHg 84%
    02:00 +3°C° 0 mm 5 mps 712 mmHg 84%
    03:00 +3°C° 0 mm 5 mps 711 mmHg 85%
    04:00 +2°C° 0 mm 5 mps 711 mmHg 86%
    05:00 +3°C° 0 mm 5 mps 711 mmHg 85%
    06:00 +3°C° 0 mm 5 mps 711 mmHg 84%
    07:00 +3°C° 0 mm 5 mps 711 mmHg 83%
    08:00 +5°C° 0 mm 5 mps 711 mmHg 81%
    09:00 +5°C° 0 mm 6 mps 712 mmHg 78%
    10:00 +7°C° 0 mm 6 mps 712 mmHg 75%
    11:00 +7°C° 0 mm 6 mps 712 mmHg 74%
    12:00 +7°C° 0 mm 6 mps 711 mmHg 74%
    13:00 +8°C° 0 mm 6 mps 711 mmHg 73%
    14:00 +7°C° 0.1 mm 6 mps 711 mmHg 76%
    15:00 +7°C° 0.1 mm 6 mps 711 mmHg 79%
    16:00 +7°C° 0.1 mm 6 mps 710 mmHg 82%
    17:00 +7°C° 0 mm 6 mps 710 mmHg 82%
    18:00 +7°C° 0 mm 6 mps 711 mmHg 83%
    19:00 +7°C° 0 mm 6 mps 711 mmHg 84%
    20:00 +7°C° 0 mm 6 mps 711 mmHg 84%
    21:00 +7°C° 0 mm 6 mps 711 mmHg 84%
    22:00 +7°C° 0 mm 6 mps 711 mmHg 83%
    23:00 +7°C° 0 mm 6 mps 711 mmHg 84%

    23 October, Tuesday

    Time Temperature Precipitation Wind Pressure Humidity
    00:00 +7°C° 0 mm 6 mps 711 mmHg 84%
    01:00 +7°C° 0 mm 6 mps 711 mmHg 84%
    02:00 +6°C° 0 mm 7 mps 711 mmHg 83%
    03:00 +6°C° 0 mm 7 mps 711 mmHg 82%
    04:00 +5°C° 0 mm 7 mps 711 mmHg 81%
    05:00 +5°C° 0 mm 7 mps 711 mmHg 80%
    06:00 +5°C° 0 mm 8 mps 711 mmHg 79%
    07:00 +5°C° 0 mm 8 mps 712 mmHg 78%
    08:00 +6°C° 0 mm 8 mps 712 mmHg 75%
    09:00 +6°C° 0 mm 8 mps 712 mmHg 71%
    10:00 +7°C° 0 mm 9 mps 713 mmHg 67%
    11:00 +9°C° 0 mm 8 mps 712 mmHg 64%
    12:00 +10°C° 0 mm 8 mps 712 mmHg 62%
    13:00 +10°C° 0 mm 8 mps 712 mmHg 59%
    14:00 +10°C° 0 mm 7 mps 712 mmHg 61%
    15:00 +9°C° 0 mm 7 mps 712 mmHg 62%
    16:00 +9°C° 0 mm 6 mps 712 mmHg 64%
    17:00 +8°C° 0 mm 6 mps 712 mmHg 68%
    18:00 +7°C° 0 mm 6 mps 712 mmHg 73%
    19:00 +6°C° 0 mm 5 mps 712 mmHg 77%
    20:00 +5°C° 0 mm 5 mps 712 mmHg 77%
    21:00 +5°C° 0 mm 5 mps 712 mmHg 77%
    22:00 +5°C° 0 mm 4 mps 712 mmHg 77%
    23:00 +4°C° 0 mm 4 mps 712 mmHg 77%

    24 October, Wednesday

    Time Temperature Precipitation Wind Pressure Humidity
    00:00 +3°C° 0 mm 4 mps 712 mmHg 77%
    01:00 +3°C° 0 mm 3 mps 711 mmHg 77%
    02:00 +3°C° 0 mm 3 mps 711 mmHg 76%
    03:00 +2°C° 0 mm 3 mps 711 mmHg 75%
    04:00 +2°C° 0 mm 3 mps 710 mmHg 74%
    05:00 +2°C° 0 mm 3 mps 710 mmHg 69%
    06:00 +4°C° 0 mm 2 mps 710 mmHg 63%
    07:00 +4°C° 0 mm 2 mps 710 mmHg 58%
    08:00 +7°C° 0 mm 2 mps 710 mmHg 50%
    09:00 +10°C° 0 mm 2 mps 710 mmHg 43%
    10:00 +14°C° 0 mm 2 mps 710 mmHg 36%
    11:00 +14°C° 0 mm 3 mps 710 mmHg 37%
    12:00 +17°C° 0 mm 3 mps 710 mmHg 38%
    13:00 +18°C° 0 mm 3 mps 710 mmHg 39%
    14:00 +17°C° 0 mm 3 mps 709 mmHg 45%
    15:00 +16°C° 0 mm 3 mps 709 mmHg 51%
    16:00 +14°C° 0 mm 3 mps 709 mmHg 57%
    17:00 +14°C° 0 mm 2 mps 709 mmHg 59%
    18:00 +14°C° 0 mm 2 mps 709 mmHg 60%
    19:00 +13°C° 0 mm 2 mps 710 mmHg 61%
    20:00 +12°C° 0 mm 2 mps 710 mmHg 62%
    21:00 +12°C° 0 mm 2 mps 710 mmHg 63%
    22:00 +10°C° 0 mm 2 mps 710 mmHg 64%
    23:00 +10°C° 0 mm 2 mps 710 mmHg 65%

    25 October, Thursday

    Time Temperature Precipitation Wind Pressure Humidity
    00:00 +10°C° 0 mm 2 mps 710 mmHg 66%
    01:00 +9°C° 0 mm 2 mps 711 mmHg 66%
    02:00 +9°C° 0 mm 2 mps 711 mmHg 68%
    03:00 +10°C° 0 mm 1 mps 711 mmHg 70%
    04:00 +9°C° 0 mm 1 mps 711 mmHg 72%
    05:00 +9°C° 0 mm 1 mps 711 mmHg 71%
    06:00 +10°C° 0 mm 1 mps 711 mmHg 71%
    07:00 +10°C° 0 mm 1 mps 712 mmHg 71%
    08:00 +12°C° 0 mm 2 mps 712 mmHg 63%
    09:00 +15°C° 0 mm 2 mps 713 mmHg 56%
    10:00 +17°C° 0 mm 2 mps 714 mmHg 48%
    11:00 +18°C° 0 mm 2 mps 713 mmHg 47%
    12:00 +18°C° 0 mm 2 mps 713 mmHg 46%
    13:00 +19°C° 0 mm 2 mps 713 mmHg 45%
    14:00 +18°C° 0 mm 2 mps 713 mmHg 50%
    15:00 +17°C° 0 mm 2 mps 712 mmHg 55%
    16:00 +16°C° 0 mm 2 mps 712 mmHg 60%
    17:00 +15°C° 0 mm 2 mps 712 mmHg 67%
    18:00 +13°C° 0 mm 1 mps 712 mmHg 75%
    19:00 +11°C° 0 mm 1 mps 712 mmHg 82%
    20:00 +11°C° 0 mm 1 mps 712 mmHg 83%
    21:00 +10°C° 0 mm 2 mps 712 mmHg 83%
    22:00 +10°C° 0 mm 2 mps 712 mmHg 84%
    23:00 +9°C° 0 mm 2 mps 711 mmHg 84%
    Show more